Change the Weather History Date:

Sunday, March 3, 2013

  Actual Average (KGTF) Record (KGTF)
Temperature  
Mean Temperature 34 °F 30 °F  
Max Temperature 46 °F 42 °F 71 °F (1905)
Min Temperature 21 °F 19 °F -23 °F (1960)
Degree Days  
Heating Degree Days 32 35  
Month to date heating degree days 105  
Since 1 July heating degree days 5610  
Cooling Degree Days 0 0  
Month to date cooling degree days 0  
Year to date cooling degree days 0  
Moisture  
Dew Point 19 °F    
Average Humidity 67    
Maximum Humidity 93    
Minimum Humidity 20    
Precipitation  
Precipitation 0.00 in 0.02 in 0.20 in (1938)
Month to date precipitation 0.06  
Year to date precipitation 1.04  
Snow  
Snow 0.00 in 0.40 in 5.50 in (1938)
Month to date snowfall 1.0  
Since 1 July snowfall 41.0  
Snow Depth -    
Sea Level Pressure  
Sea Level Pressure 29.89 in    
Wind  
Wind Speed 18 mph (West)    
Max Wind Speed 33 mph    
Max Gust Speed 47 mph    
Visibility 6 miles    
Events Snow    
T = Trace of Precipitation, MM = Missing Value Source: NWS Daily Summary

Daily Weather History Graph

Daily Weather History Graph

Search for Another Location

Airport or City:

Trip Planner

Search our weather history database for the weather conditions in past years. The results will help you decide how hot, cold, wet, or windy it might be!

Date:

Astronomy

Mar. 03, 2013 Rise Set
Actual Time 7:00 AM MST 6:13 PM MST
Civil Twilight 6:29 AM MST 6:44 PM MST
Nautical Twilight 5:54 AM MST 7:19 PM MST
Astronomical Twilight 5:18 AM MST 7:55 PM MST
Moon 12:22 AM MST (3/3) 9:51 AM MST (3/3)
Length of Visible Light 12h 14m
Length of Day
11h 12m
Waning Gibbous, 63% of the Moon is Illuminated
Mar 3
Waning Gibbous
Mar 4
Last Quarter
Mar 11
New
Mar 19
First Quarter
Mar 27
Full

Hourly Weather History & Observations

Time (MST) Temp. Windchill Dew Point Humidity Pressure Visibility Wind Dir Wind Speed Gust Speed Precip Events Conditions
12:56 AM 42.1 °F 37.1 °F 28.0 °F 58% 29.86 in 10.0 mi South 8.1 mph - N/A   Overcast
1:56 AM 43.0 °F 37.7 °F 28.0 °F 56% 29.83 in 10.0 mi SW 9.2 mph - N/A   Overcast
2:56 AM 39.0 °F 31.8 °F 28.9 °F 67% 29.80 in 10.0 mi SSW 11.5 mph - N/A   Mostly Cloudy
3:56 AM 39.9 °F 32.9 °F 30.0 °F 68% 29.77 in 10.0 mi SSW 11.5 mph - N/A   Clear
4:56 AM 39.0 °F 30.6 °F 28.9 °F 67% 29.75 in 10.0 mi SSW 15.0 mph - N/A   Clear
5:56 AM 41.0 °F 33.5 °F 28.0 °F 60% 29.74 in 10.0 mi SSW 13.8 mph - N/A   Clear
6:56 AM 37.0 °F 29.8 °F 27.0 °F 67% 29.74 in 10.0 mi SSW 10.4 mph - N/A   Clear
7:56 AM 42.1 °F 33.9 °F 26.1 °F 53% 29.71 in 10.0 mi SSW 17.3 mph - N/A   Clear
8:56 AM 46.0 °F 38.8 °F 26.1 °F 46% 29.70 in 10.0 mi SSW 18.4 mph 24.2 mph N/A   Overcast
9:32 AM 39.2 °F 28.5 °F 28.4 °F 65% 29.63 in 10.0 mi West 24.2 mph 33.4 mph N/A   Overcast
9:56 AM 39.9 °F 30.8 °F 27.0 °F 60% 29.77 in 10.0 mi West 18.4 mph - N/A   Overcast
10:56 AM 41.0 °F 32.2 °F 17.1 °F 38% 29.78 in 10.0 mi WSW 18.4 mph 28.8 mph N/A   Overcast
11:56 AM 39.9 °F 29.7 °F 6.1 °F 25% 29.77 in 10.0 mi WSW 23.0 mph 31.1 mph N/A   Overcast
12:56 PM 41.0 °F 29.3 °F 1.9 °F 20% 29.75 in 10.0 mi WSW 33.4 mph 46.0 mph N/A   Clear
1:56 PM 41.0 °F 30.2 °F 7.0 °F 25% 29.75 in 10.0 mi WSW 27.6 mph 35.7 mph N/A   Clear
2:56 PM 41.0 °F 31.1 °F 6.1 °F 24% 29.77 in 10.0 mi WSW 23.0 mph 38.0 mph N/A   Mostly Cloudy
4:56 PM 30.9 °F 17.5 °F 19.0 °F 61% 29.93 in 6.0 mi WNW 24.2 mph 35.7 mph 0.00 in Snow Light Snow
5:56 PM 30.0 °F 14.9 °F 15.1 °F 54% 29.94 in 10.0 mi WNW 29.9 mph 47.2 mph 0.00 in   Overcast
6:56 PM 27.0 °F 10.0 °F 17.1 °F 66% 29.99 in 10.0 mi West 33.4 mph 47.2 mph N/A   Overcast
7:22 PM 26.6 °F 11.1 °F 19.4 °F 74% 29.85 in 2.5 mi WNW 26.5 mph 41.4 mph 0.00 in Snow Light Snow
7:31 PM 24.8 °F 10.7 °F 21.2 °F 86% 29.85 in 1.2 mi WNW 19.6 mph 41.4 mph 0.00 in Snow Light Snow
7:56 PM 23.0 °F 4.9 °F 19.0 °F 85% 30.04 in 0.8 mi WNW 32.2 mph 46.0 mph 0.00 in Snow Light Snow
8:05 PM 24.8 °F 7.6 °F 17.6 °F 74% 29.88 in 2.0 mi WNW 31.1 mph 47.2 mph 0.00 in Snow Light Snow
8:07 PM 24.8 °F 8.1 °F 17.6 °F 74% 29.88 in 4.0 mi WNW 28.8 mph 47.2 mph 0.00 in Snow Light Snow
8:50 PM 23.0 °F 6.6 °F 17.6 °F 80% 29.92 in 1.8 mi WNW 25.3 mph 44.9 mph 0.00 in Snow Light Snow
8:56 PM 23.0 °F 5.7 °F 17.1 °F 78% 30.09 in 1.5 mi NW 28.8 mph 44.9 mph 0.00 in Snow Light Snow
9:07 PM 23.0 °F 8.7 °F 17.6 °F 80% 29.94 in 2.0 mi WNW 18.4 mph 35.7 mph 0.00 in Snow Light Snow
9:16 PM 23.0 °F 7.2 °F 17.6 °F 80% 29.94 in 1.5 mi WNW 23.0 mph 38.0 mph 0.00 in Snow Light Snow
9:25 PM 21.2 °F 6.0 °F 19.4 °F 93% 29.96 in 0.8 mi WNW 19.6 mph 38.0 mph 0.00 in Snow Light Snow
9:31 PM 21.2 °F 6.0 °F 17.6 °F 86% 29.96 in 1.0 mi WNW 19.6 mph 27.6 mph 0.00 in Snow Light Snow
9:42 PM 21.2 °F 5.2 °F 17.6 °F 86% 29.96 in 2.0 mi WNW 21.9 mph 33.4 mph 0.00 in Snow Light Snow
9:56 PM 21.9 °F 7.8 °F 18.0 °F 85% 30.16 in 2.0 mi NW 17.3 mph 27.6 mph 0.00 in Snow Light Snow
10:06 PM 21.2 °F 5.6 °F 17.6 °F 86% 29.99 in 1.8 mi WNW 20.7 mph 28.8 mph 0.00 in Snow Light Snow
10:18 PM 21.2 °F 4.9 °F 17.6 °F 86% 29.99 in 2.0 mi WNW 23.0 mph 29.9 mph 0.00 in Snow Light Snow
10:39 PM 21.2 °F 6.8 °F 17.6 °F 86% 29.99 in 3.0 mi WNW 17.3 mph 26.5 mph 0.00 in Snow Light Snow
10:56 PM 21.0 °F 7.1 °F 17.1 °F 85% 30.19 in 4.0 mi WNW 16.1 mph - 0.00 in Snow Light Snow
11:56 PM 21.0 °F 6.6 °F 15.1 °F 78% 30.22 in 7.0 mi NW 17.3 mph 27.6 mph 0.00 in Snow Light Snow